User: anonymous   Login
Location: Theydon Bois
(51.6750°N, 0.1050°E)
Time: 08:06:08
(UTC+00:00)
Language:

FREGAT/IRIS - Orbit

View from above orbital plane
View from above orbital plane
View from above satellite
View from above satellite

Ground track
Ground track

The orbit data is extracted from the following two-line orbital elements,

1 35867U 09049C   17350.57630797 +.00006516 +00000-0 +74743-4 0  9998
2 35867 097.0325 015.4041 0003367 208.5884 151.5191 15.62414614462612
Epoch (UTC): 16 December 2017 13:49:53
Eccentricity: 0.0003367
inclination: 97.0325°
perigee height: 378 km
apogee height: 383 km
right ascension of ascending node: 15.4041°
argument of perigee: 208.5884°
revolutions per day: 15.62414614
mean anomaly at epoch: 151.5191°
orbit number at epoch: 46261

The dashed part of the orbit path shows where the satellite is in the earth's shadow,  

DLR